Weather Service Report


247 
ASUS43 KBIS 270610
RWRND 

NORTH DAKOTA REGIONAL WEATHER ROUNDUP
NATIONAL WEATHER SERVICE BISMARCK ND
100 AM CDT MON APR 27 2015

NOTE: "FAIR" INDICATES FEW OR NO CLOUDS BELOW 12,000 FEET WITH NO
SIGNIFICANT WEATHER AND/OR OBSTRUCTIONS TO VISIBILITY.


NDZ001>003-009>011-017-270700-
NORTHWEST NORTH DAKOTA
  
CITY           SKY/WX    TMP DP  RH WIND       PRES   REMARKS
WILLISTON      LGT RAIN  44  37  76 N9        30.22R                  
6HR MIN TEMP:  43; 6HR MAX TEMP:  54; 6HR PCP:  0.01;                

MINOT          CLOUDY    47  44  90 W7        30.18R                  
MINOT AFB      DRIZZLE   47  47 100 N8        30.17S                  
$$
 
NDZ018>021-031>035-040>046-270700-
SOUTHWEST NORTH DAKOTA
  
CITY           SKY/WX    TMP DP  RH WIND       PRES   REMARKS
BISMARCK       MOCLDY    46  46 100 NE3       30.18S FOG              
6HR MIN TEMP:  44; 6HR MAX TEMP:  56;                                

DICKINSON      LGT RAIN  43  42  97 N3        30.17R FOG              
GARRISON         N/A     45  43  93 NW5       30.17S                  
6HR MIN TEMP:  44; 6HR MAX TEMP:  49;                                

HETTINGER ARPT LGT RAIN  43  41  93 N6        30.19S FOG              
$$
 
NDZ004>008-012>016-024-026-027-054-270700-
NORTHEAST NORTH DAKOTA
  
CITY           SKY/WX    TMP DP  RH WIND       PRES   REMARKS
GRAND FORKS    CLEAR     45  28  51 W6        30.16R                  
GRND FRKS AFB  CLEAR     40  28  62 NW2       30.16R                  
DEVILS LAKE    PTCLDY    43  39  87 CALM      30.16S                  
$$
 
NDZ022-023-025-028>030-036>039-047>053-270700-
SOUTHEAST NORTH DAKOTA
  
CITY           SKY/WX    TMP DP  RH WIND       PRES   REMARKS
FARGO          CLEAR     44  27  51 SE3       30.16R                  
6HR MIN TEMP:  42; 6HR MAX TEMP:  66;                                

JAMESTOWN      CLEAR     41  29  62 N7        30.16R                  
$$ 



250 
ASUS43 KBIS 270610
RWRBIS

NWR BROADCAST TEXT
NATIONAL WEATHER SERVICE BISMARCK ND
100 AM CDT MON APR 27 2015

NOTE: "FAIR" INDICATES FEW OR NO CLOUDS BELOW 12,000 FEET WITH NO
SIGNIFICANT WEATHER AND/OR OBSTRUCTIONS TO VISIBILITY.

  
CITY           SKY/WX    TMP DP  RH WIND       PRES   REMARKS
WILLISTON      LGT RAIN  44  37  76 N9        30.22R                  
MINOT          CLOUDY    47  44  90 W7        30.18R                  
MINOT AFB      DRIZZLE   47  47 100 N8        30.17S                  
BISMARCK       MOCLDY    46  46 100 NE3       30.18S FOG              
DICKINSON      LGT RAIN  43  42  97 N3        30.17R FOG              
GARRISON         N/A     45  43  93 NW5       30.17S                  
HETTINGER ARPT LGT RAIN  43  41  93 N6        30.19S FOG              
JAMESTOWN      CLEAR     41  29  62 N7        30.16R                  
BEACH          LGT RAIN  39  39 100 NW13      30.22S                  
CARRINGTON     FAIR      37  37 100 W8        30.18S FOG              
CROSBY         FAIR      39  39 100 NW8       30.23S                  
HARVEY           N/A    N/A N/A N/A MISG        N/A                   
HAZEN          CLOUDY    43  43 100 CALM      30.19S FOG              
LINTON         FOG       37  37 100 CALM      30.16R VSB 1/4          
MANDAN         CLOUDY    45  45 100 N5        30.18S FOG              
OAKES            N/A     39  30  70 SE7       30.16R                  
STANLEY        LGT RAIN  43  43 100 N13       30.20R                  
WATFORD CITY   CLOUDY    45  41  87 NW7       30.19R                  
$$
  
CITY           SKY/WX    TMP DP  RH WIND       PRES   REMARKS
GRAND FORKS    CLEAR     45  28  51 W6        30.16R                  
GRAND FORKS AF CLEAR     40  28  62 NW2       30.16R                  
DEVILS LAKE    PTCLDY    43  39  87 CALM      30.16S                  
FARGO          CLEAR     44  27  51 SE3       30.16R                  
CANDO          FOG       39  39 100 W3        30.17S VSB<1/4          
CAVALIER       FAIR      43  39  87 W3        30.16S                  
GRAFTON        FAIR      45  39  81 E7        30.17R                  
GWINNER        CLEAR     48  30  49 S6        30.17R                  
LANGDON        MOCLDY    37  36  93 S5        30.16S                  
ROLLA          CLOUDY    45  45 100 CALM      30.17S                  
WALHALLA       FAIR      46  46 100 SW3       30.16S                  
$$
  
CITY           SKY/WX    TMP DP  RH WIND       PRES   REMARKS
ABERDEEN       PTCLDY    40  29  64 SE7       30.17R                  
MOBRIDGE       PTCLDY    45  34  65 CALM      30.12R                  
BUFFALO          N/A     44  43  96 N13       30.11S                  
RAPID CITY     MOCLDY    44  42  93 N5        30.15R                  
GLASGOW        CLOUDY    40  35  83 W5        30.25S                  
SIDNEY         CLOUDY    43  39  87 W9        30.24R                  
WOLF POINT     LGT RAIN  42  39  89 CALM      30.26R                  
GLENDIVE       CLOUDY    39  36  87 NW13      30.25S                  
MILES CITY     CLOUDY    37  36  96 NW7       30.26S                  
BAKER          LGT RAIN  39  36  89 NW13      30.23R                  
$$
  
CITY           SKY/WX    TMP DP  RH WIND       PRES   REMARKS
BILLINGS       CLOUDY    37  34  89 S5        30.28S                  
GREAT FALLS    CLEAR     31  29  92 S9        30.22F                  
REGINA         CLOUDY    37  34  87 NW5       30.21F                  
ESTEVAN        CLOUDY    41  34  75 NW7       30.22R                  
$$


Return to Home page


Western Regional Climate Center, wrcc@dri.edu